Location: Helsinki
(60.1699°N, 24.9384°E)
Time: 15:10:50
(UTC+02:00)

Tiros 1 - Pass Details

Date: 09 October 2022
Orbit: 629 x 662 km, 48.4° (Epoch: 07 December)

Event Time Altitude Azimuth Distance (km) Brightness Sun altitude
Rises 23:04:53 0° 216° (SW) 2,988 - -31.6°
Reaches altitude 10° 23:08:08 10° 193° (SSW) 2,078 - -31.8°
Maximum altitude 23:10:49 15° 159° (SSE) 1,766 - -32.0°
Drops below altitude 10° 23:13:30 10° 125° (SE) 2,079 - -32.2°
Sets 23:16:45 0° 102° (ESE) 2,990 - -32.4°
